Home   Weather   Kamen   Past weeks

Flag for Germany Past Weather in Kamen, North Rhine-Westphalia, Germany — Yesterday and Last 2 Weeks

Now
36 °F

Passing clouds.


Feels Like: 27 °F
Forecast: 34 / 43 °F
Wind: 14 mph from West

Location: Dortmund / Wickede

Current Time: Feb 24, 2017 at 7:44:35 am

Latest Report: Feb 24, 2017 at 6:50 am


Visibility: N/A

Pressure: 29.68 "Hg

Humidity: 81%

Dew Point: 30 °F

Location of KamenLocation

Past Weather in Kamen — Graph

°F

Kamen Temperature Yesterday

Maximum temperature yesterday: 48 °F (at 3:50 pm)
Minimum temperature yesterday: 43 °F (at 6:50 pm)
Average temperature yesterday: 46 °F

High & Low Weather Summary for the Past Weeks

 TemperatureHumidityPressure
High61 °F (Feb 15, 2:50 pm)94% (Feb 20, 9:50 pm)30.51 "Hg (Feb 20, 9:50 pm)
Low27 °F (Feb 9, 7:20 am)29% (Feb 15, 2:50 pm)29.18 "Hg (Feb 23, 4:56 pm)
Average40 °F74%30.13 "Hg
* Reported Feb 9 6:20 am — Feb 24 6:20 am, Kamen, Weather by CustomWeather, © 2017

Note: Actual official high and low records may vary slightly from our data, if they occured in-between our weather recording intervals... More about our weather records

Advertising

Kamen Weather History for the Previous 24 Hours

Scroll right to see more
 ConditionsComfort  
Time TempWeatherWind HumidityBarometerVisibility
6:20 am
Fri, Feb 24
37 °FPassing clouds.13 mph75%29.68 "HgN/A
5:50 am37 °FPassing clouds.13 mph75%29.65 "HgN/A
5:20 am37 °FPassing clouds.16 mph75%29.62 "HgN/A
9:50 pm
Thu, Feb 23
43 °FPassing clouds.23 mph71%29.24 "HgN/A
9:20 pm45 °FPassing clouds.30 mph66%29.21 "HgN/A
8:50 pm45 °FLight rain. Passing clouds.29 mph66%29.21 "HgN/A
8:20 pm43 °FLight rain. Passing clouds.26 mph76%29.21 "HgN/A
7:50 pm43 °FLight rain. Passing clouds.25 mph81%29.21 "Hg6 mi
7:20 pm43 °FLight rain. Passing clouds.23 mph76%29.21 "Hg6 mi
6:50 pm43 °FLight rain. Passing clouds.31 mph71%29.21 "HgN/A
6:20 pm46 °FLight rain. Partly cloudy.32 mph66%29.18 "HgN/A
5:50 pm46 °FSprinkles. Scattered clouds.26 mph71%29.21 "HgN/A
5:20 pm46 °FPartly sunny.32 mph66%29.21 "HgN/A
4:56 pm48 °FThundershowers. Partly sunny.28 mph62%29.18 "HgN/A
4:20 pm48 °FScattered clouds.29 mph71%29.21 "HgN/A
3:50 pm48 °FScattered clouds.28 mph66%29.21 "HgN/A
3:20 pm46 °FPartly sunny.25 mph82%29.24 "HgN/A
2:50 pm46 °FRain. Fog.25 mph82%29.24 "Hg2 mi
2:20 pm46 °FRain. Fog.24 mph76%29.27 "Hg2 mi
1:50 pm46 °FPartly sunny.23 mph82%29.30 "HgN/A
1:20 pm46 °FLight rain. Overcast.21 mph82%29.36 "Hg4 mi
12:50 pm46 °FLight rain. Overcast.18 mph82%29.39 "Hg6 mi
12:20 pm46 °FLight rain. Overcast.20 mph82%29.42 "Hg5 mi
11:50 am46 °FOvercast.21 mph82%29.42 "HgN/A
11:20 am46 °FPartly sunny.21 mph82%29.45 "HgN/A
10:50 am46 °FPartly sunny.22 mph82%29.45 "HgN/A
10:20 am46 °FPartly sunny.21 mph87%29.45 "HgN/A
9:50 am46 °FPartly sunny.22 mph82%29.47 "Hg4 mi
9:20 am46 °FDrizzle. Partly sunny.23 mph82%29.50 "Hg4 mi
8:50 am46 °FLight rain. Overcast.24 mph82%29.50 "Hg3 mi
8:20 am46 °FLight rain. Overcast.23 mph82%29.50 "Hg3 mi
7:50 am46 °FDrizzle. Overcast.24 mph82%29.53 "Hg5 mi
7:20 am46 °FLight rain. Overcast.22 mph87%29.53 "Hg5 mi
Weather by CustomWeather, © 2017

See weather overviewHow to use our weather pages